#timestamp,LO_Frequency,Hit,StdDev 
1617091215.1,286047004.5,N
1617091235.8,286047007.6,N
1617091255.7,286047006.5,N
1617091275.5,286047009.2,Y
1617091295.4,286046998.6,P
1617091315.2,286046996.9,N
1617091335.0,286047001.1,N
1617091335.9,286047001.1,N
1617091355.8,286047000.7,N
1617091375.6,286047000.7,N
1617091395.4,286047000.4,N
1617091415.3,286047002.7,N
1617091435.1,286046999.7,N
1617091455.8,286047000.9,N
1617091475.7,286046999.2,N
1617091495.5,286046997.1,N
1617091515.4,286046999.4,N
1617091535.2,286046997.7,N
1617091555.0,286046996.2,N
1617091555.9,286046996.2,N
1617091575.8,286046993.3,N
1617091595.6,286046991.7,N
1617091615.4,286046995.7,N
1617091635.3,286046997.3,N
1617091655.1,286046996.7,N
1617091675.9,286046995.1,N
1617091695.7,286046994.0,N
1617091715.5,286046991.7,N
1617091735.4,286046990.3,N
1617091755.2,286046989.7,N
1617091775.0,286046987.7,Y
1617091775.9,286046987.7,P
1617091795.8,286046989.4,N
1617091815.6,286046987.7,N
1617091835.5,286046988.0,N
1617091855.3,286046987.1,Y
1617091875.1,286046997.9,P
1617091895.9,286046995.4,N
1617091915.7,286046995.9,N
1617091935.5,286046993.6,N
1617091955.4,286046993.8,N
1617091975.2,286046993.7,N
1617091995.1,286046995.9,N
1617091996.0,286046995.9,N
1617092015.8,286046996.4,N
1617092035.6,286046993.4,Y
1617092055.5,286047000.6,P
1617092075.3,286046999.9,N
1617092095.1,286047001.4,N
1617092115.9,286047001.4,N
1617092135.7,286047005.9,N
1617092155.6,286047005.9,N
1617092175.4,286047005.5,N
1617092195.2,286047004.0,N
1617092215.1,286047002.1,N
1617092216.0,286047002.1,N
1617092235.8,286047001.6,N
1617092255.6,286047000.5,N
1617092275.5,286046998.8,N
1617092295.3,286046999.0,N
1617092315.2,286046999.0,N
1617092335.9,286046999.0,N
1617092355.7,286047001.1,N
1617092375.6,286047000.7,N
1617092395.4,286047000.5,N
1617092415.2,286047002.2,N
1617092435.1,286047001.6,N
1617092436.0,286047001.6,N
1617092455.8,286047004.2,N
1617092475.7,286047003.6,N
1617092495.5,286047005.7,N
1617092515.3,286047004.6,N
1617092535.2,286047005.1,N
1617092555.0,286047005.6,N
1617092555.9,286047005.6,N
1617092575.7,286047003.9,N
1617092595.6,286047002.1,N
1617092615.4,286047002.0,N
1617092635.3,286047001.5,N
1617092655.1,286047003.9,N
1617092656.0,286047003.9,N
1617092675.8,286047004.0,N
1617092695.7,286047004.0,N
1617092715.5,286047001.5,N
1617092735.3,286047004.1,N
1617092755.2,286047001.7,N
1617092775.0,286047004.3,N
1617092775.9,286047004.3,N
1617092795.8,286047004.2,N
1617092815.6,286047002.8,N
1617092835.4,286047002.5,N
1617092855.3,286047000.2,N
1617092875.1,286047001.1,N
1617092895.8,286046999.7,N
1617092915.7,286046998.2,N
1617092935.5,286046999.4,N
1617092955.4,286047000.6,N
1617092975.2,286047002.2,N
1617092995.0,286047002.8,N
1617092995.9,286047002.8,N
1617093015.8,286047002.7,N
1617093035.6,286046998.6,N
1617093055.4,286046998.3,N
1617093075.3,286046998.6,N
1617093095.1,286046998.2,N
1617093115.9,286046998.6,N
1617093135.7,286047001.2,N
1617093155.5,286046999.5,N
1617093175.4,286046998.9,N
1617093195.2,286046998.8,N
1617093215.0,286046999.1,N
1617093216.0,286046999.1,N
1617093235.8,286046998.7,N
1617093255.6,286046998.8,N
1617093275.5,286046998.5,N
1617093295.3,286046998.9,N
1617093315.1,286046998.9,N
1617093335.9,286046998.6,N
1617093355.7,286046999.7,N
1617093375.5,286047000.5,N
1617093395.4,286047000.2,N
1617093415.2,286047002.7,N
1617093435.1,286047001.5,N
1617093436.0,286047001.5,N
1617093455.8,286047002.5,N
1617093475.6,286046999.8,N
1617093495.5,286047002.0,N
1617093515.3,286047001.6,N
1617093535.1,286047002.5,N
1617093555.9,286047001.5,N
1617093575.7,286047005.6,Y
1617093595.6,286047007.1,P
1617093615.4,286047006.8,N
1617093635.2,286047005.9,N
1617093655.1,286047005.9,N
1617093656.0,286047005.9,N
1617093675.8,286047005.9,N
1617093695.6,286047003.4,N
1617093715.5,286047003.9,N
1617093735.3,286046999.8,N
1617093755.2,286046999.8,N
1617093775.9,286047001.1,N
1617093795.7,286046998.6,N
1617093815.6,286047002.0,N
1617093835.4,286047004.2,N
1617093855.2,286047004.0,N
1617093875.1,286047003.9,N
1617093876.0,286047003.9,N
1617093895.8,286047001.4,N
1617093915.7,286047002.5,N
1617093935.5,286047001.9,N
1617093955.3,286047001.7,N
1617093975.2,286047002.8,N
1617093995.0,286047001.7,N
1617093995.9,286047001.7,N
1617094015.7,286047002.3,N
1617094035.6,286047002.4,N
1617094055.4,286047000.2,N
1617094075.3,286046999.9,N
1617094095.1,286046998.1,N
1617094096.0,286046998.1,N
1617094115.8,286047000.1,N
1617094135.7,286047002.5,N
1617094155.5,286047000.0,N
1617094175.3,286047000.0,N
1617094195.2,286047000.9,N
1617094215.0,286046998.1,N
1617094215.9,286046998.1,N
1617094235.8,286047000.7,N
1617094255.6,286046999.9,N
1617094275.4,286047002.7,N
1617094295.3,286047000.7,N
1617094315.1,286047002.1,N
1617094335.9,286046999.9,N
1617094355.7,286047001.8,N
1617094375.5,286047004.3,N
1617094395.4,286047002.1,N
1617094415.2,286047002.1,N
1617094435.0,286047004.0,N
1617094435.9,286047004.0,N
1617094455.8,286047001.6,N
1617094475.6,286047001.4,N
1617094495.5,286047005.6,Y
1617094515.3,286047005.0,P
1617094535.1,286047009.7,P
1617094555.9,286047015.1,P
1617094575.7,286047013.2,N
1617094595.5,286047012.8,N
1617094615.4,286047015.2,Y
1617094635.2,286047004.6,P
1617094655.1,286047005.7,N
1617094656.0,286047005.7,N
1617094675.8,286047002.0,N
1617094695.6,286046998.5,N
1617094715.5,286047000.0,N
1617094735.3,286047011.9,Y
1617094755.1,286046996.5,P
1617094775.9,286046999.6,N
1617094795.7,286046997.7,N
